Regional Weather Roundup
Issued by NWS

Home | Current Version | Previous Version | Graphics & Text | Print | Product List | Glossary Off
Versions: 1 2 3 4 5 6 7 8 9 10 11 12 13 14 15 16 17 18 19 20 21 22 23 24 25 26 27 28 29 30 31 32 33 34 35 36 37 38 39 40 41 42 43 44 45 46 47 48 49 50

000
ASUS43 KTOP 031208
RWRKS

WEATHER ROUNDUP FOR KANSAS
NATIONAL WEATHER SERVICE GOODLAND KS
700 AM CDT TUE MAY 03 2016

NOTE:  "FAIR" INDICATES FEW OR NO CLOUDS BELOW 12,000 FEET WITH NO
SIGNIFICANT WEATHER AND/OR OBSTRUCTIONS TO VISIBILITY.

KSZ001>006-013>018-027>032-041>047-031300-
NORTHWEST KANSAS

CITY           SKY/WX    TMP DP  RH WIND       PRES   REMARKS
GOODLAND       MOCLDY    41  39  93 NW8       30.06R
6HR MIN TEMP:  37; 6HR MAX TEMP:  49; 6HR PCP:  0.01;

HAYS           PTCLDY    45  34  65 NE3       30.02F
HILL CITY      MOCLDY    47  41  80 CALM      30.03R
6HR MIN TEMP:  43; 6HR MAX TEMP:  52; 6HR PCP: TRACE;

RUSSELL        CLOUDY    44  40  85 W8        30.02R
6HR MIN TEMP:  44; 6HR MAX TEMP:  48;

$$

KSZ061>065-074>080-084>089-031300-
SOUTHWEST KANSAS

CITY           SKY/WX    TMP DP  RH WIND       PRES   REMARKS
DODGE CITY     CLOUDY    45  36  70 SW10      30.04F
6HR MIN TEMP:  43; 6HR MAX TEMP:  48;

ELKHART          N/A     50  39  66 W7          N/A
GARDEN CITY    MOCLDY    41  36  82 SW5       30.03F
6HR MIN TEMP:  41; 6HR MAX TEMP:  47;

GREAT BEND     CLOUDY    43  36  75 SW6       30.05R
LIBERAL        PTCLDY    46  37  71 SW3       30.05S
PRATT          CLOUDY    39  37  89 SW6       30.05S
6HR MIN TEMP:  37; 6HR MAX TEMP:  44;

$$

KSZ066>073-081>083-090>101-031300-
SOUTHEAST KANSAS

CITY           SKY/WX    TMP DP  RH WIND       PRES   REMARKS
CHANUTE        CLEAR     39  38  96 CALM      30.09S FOG
6HR MIN TEMP:  38; 6HR MAX TEMP:  44;

COFFEYVILLE    PTCLDY    40  39  97 CALM      30.10S FOG
6HR MIN TEMP:  39; 6HR MAX TEMP:  45;

HUTCHINSON     CLEAR     37  36  96 E3        30.06R
6HR MIN TEMP:  37; 6HR MAX TEMP:  44;

MEDICINE LODGE   N/A     37  36  96 N5        30.06S
NEWTON         CLEAR     39  34  81 SE5       30.09R
PARSONS        CLEAR     39  38  96 CALM      30.11R FOG
6HR MIN TEMP:  38; 6HR MAX TEMP:  43;

WICHITA INTL   PTCLDY    43  39  86 SE5       30.07R
6HR MIN TEMP:  41; 6HR MAX TEMP:  47;

WICHITA JABRA  CLEAR     40  39  97 SE3       30.07S
6HR MIN TEMP:  39; 6HR MAX TEMP:  47;

WICHITA MCCONL CLEAR     44  40  84 S3        30.07S
WINFIELD       CLEAR     41  39  93 CALM      30.13F
6HR MIN TEMP:  39; 6HR MAX TEMP:  46;

$$

KSZ007>012-019>026-033>040-048>060-102>105-031300-
NORTHEAST KANSAS

CITY           SKY/WX    TMP DP  RH WIND       PRES   REMARKS
CONCORDIA      PTCLDY    39  37  92 E3        30.05R
6HR MIN TEMP:  39; 6HR MAX TEMP:  47;

EMPORIA        CLEAR     41  40  96 S5        30.08R
6HR MIN TEMP:  40; 6HR MAX TEMP:  47;

LAWRENCE       FOG       38  38 100 CALM      30.08S VSB 1/4
6HR MIN TEMP:  37; 6HR MAX TEMP:  42;

MANHATTAN      CLEAR     41  38  89 CALM      30.08R FOG
6HR MIN TEMP:  39; 6HR MAX TEMP:  46;

MARYSVILLE     PTCLDY    41  41 100 CALM      30.07R
OLATHE IND     CLEAR     43  43 100 CALM      30.08R
6HR MIN TEMP:  42; 6HR MAX TEMP:  48;

OLATHE EXE       N/A     45  43  93 W3        30.07R
6HR MIN TEMP:  44; 6HR MAX TEMP:  47;

SALINA         CLOUDY    46  41  82 SE3       30.06R
6HR MIN TEMP:  41; 6HR MAX TEMP:  47;

TOPEKA BILLARD MOCLDY    40  40 100 CALM      30.08S FOG
6HR MIN TEMP:  39; 6HR MAX TEMP:  45;

TOPEKA FORBES  CLEAR     40  39  97 CALM      30.08R FOG
6HR MIN TEMP:  39; 6HR MAX TEMP:  46;

$$



USA.gov is the U.S. government's official web portal to all federal, state and local government web resources and services.